ONEWEB-0233 (48795 NORAD) Tracking and Keplerian Element Data

This shows tracking and keplerian element data for the satellite.

Feedback or suggestion? Click here.




ElementValue
Catalog48795
NameONEWEB-0233
Epoch Orbit1065
Epoch Day211.25001157
Epoch Year2021
RAAN255.7595
Inclination87.4769
Eccentricity0.0008253
Argument of Perigee63.7305
Mean Anonmoly315.4991
Mean Motion14.3756297
Decay Rate-0.00569107
L11 48795U 21045AE 21211.25001157 -.00569107 00000-0 -20016+0 0 9991
L22 48795 87.4769 255.7595 0008253 63.7305 315.4991 14.37562970 10654

Live tracking and technical data element details for ONEWEB-0233 (NORAD 48795). ONEWEB-0233 can be tracked NOW for your location showing map with azimuth and elevation plus other details from your city location.

Track the satellite on the map from your city or location and see movement details for azimuth, elevation, latitude, longitude, range, height, and movement on the map or in text.







IsCatalogInMostPopularTable: catalog: 48795, numindb: 17
Update: records affected: 1



GetName: 48795 ONEWEB-0233

Hit Count: updated at: Sat, 31 Jul 2021 16:10:48 GMT